Time,TemperatureF,DewpointF,PressureIn,WindDirection,WindDirectionDegrees,WindSpeedMPH,WindSpeedGustMPH,Humidity,HourlyPrecipIn,Conditions,Clouds,dailyrainin,SoftwareType,DateUTC
2013-02-13 00:00:00,29.6,22.4,29.96,West,271,0.0,0.0,74,0.00,,,0.00,VWS V14.00,2013-02-13 06:00:00,
2013-02-13 00:05:00,29.6,23.0,29.96,West,267,0.0,0.0,76,0.00,,,0.00,VWS V14.00,2013-02-13 06:05:00,
2013-02-13 00:10:00,29.4,22.8,29.96,West,267,0.0,0.0,76,0.00,,,0.00,VWS V14.00,2013-02-13 06:10:00,
2013-02-13 00:15:00,29.3,22.7,29.96,West,267,0.0,0.0,76,0.00,,,0.00,VWS V14.00,2013-02-13 06:15:00,
2013-02-13 00:20:00,29.1,22.5,29.96,West,267,0.0,0.0,76,0.00,,,0.00,VWS V14.00,2013-02-13 06:20:00,
2013-02-13 00:25:00,29.0,22.4,29.96,West,267,0.0,0.0,76,0.00,,,0.00,VWS V14.00,2013-02-13 06:25:00,
2013-02-13 00:30:00,28.9,22.3,29.96,West,267,0.0,0.0,76,0.00,,,0.00,VWS V14.00,2013-02-13 06:30:00,
2013-02-13 00:35:00,28.8,22.5,29.96,West,267,0.0,0.0,77,0.00,,,0.00,VWS V14.00,2013-02-13 06:35:00,
2013-02-13 00:40:00,28.8,22.5,29.96,West,267,0.0,0.0,77,0.00,,,0.00,VWS V14.00,2013-02-13 06:40:00,
2013-02-13 00:45:00,28.7,22.4,29.96,West,267,0.0,0.0,77,0.00,,,0.00,VWS V14.00,2013-02-13 06:45:00,
2013-02-13 00:50:00,28.6,22.3,29.96,West,267,0.0,0.0,77,0.00,,,0.00,VWS V14.00,2013-02-13 06:50:00,
2013-02-13 00:55:00,28.5,22.2,29.96,West,267,0.0,0.0,77,0.00,,,0.00,VWS V14.00,2013-02-13 06:55:00,
2013-02-13 01:00:00,28.4,22.1,29.96,West,267,0.0,0.0,77,0.00,,,0.00,VWS V14.00,2013-02-13 07:00:00,
2013-02-13 01:05:00,28.2,21.9,29.95,West,267,0.0,0.0,77,0.00,,,0.00,VWS V14.00,2013-02-13 07:05:00,
2013-02-13 01:10:00,28.1,21.8,29.95,WSW,252,0.0,0.0,77,0.00,,,0.00,VWS V14.00,2013-02-13 07:10:00,
2013-02-13 01:15:00,28.0,22.0,29.96,SW,225,0.0,0.0,78,0.00,,,0.00,VWS V14.00,2013-02-13 07:15:00,
2013-02-13 01:20:00,27.9,21.9,29.95,SW,225,0.0,0.0,78,0.00,,,0.00,VWS V14.00,2013-02-13 07:20:00,
2013-02-13 01:25:00,27.9,21.9,29.95,WSW,246,0.0,0.0,78,0.00,,,0.00,VWS V14.00,2013-02-13 07:25:00,
2013-02-13 01:30:00,28.0,22.3,29.96,WSW,246,0.0,0.0,79,0.00,,,0.00,VWS V14.00,2013-02-13 07:30:00,
2013-02-13 01:35:00,27.9,22.2,29.96,WSW,238,1.0,2.0,79,0.00,,,0.00,VWS V14.00,2013-02-13 07:35:00,
2013-02-13 01:40:00,27.9,21.9,29.96,WSW,237,0.0,2.0,78,0.00,,,0.00,VWS V14.00,2013-02-13 07:40:00,
2013-02-13 01:45:00,27.8,21.9,29.95,WSW,244,0.0,2.0,78,0.00,,,0.00,VWS V14.00,2013-02-13 07:45:00,
2013-02-13 01:50:00,27.7,22.0,29.95,WSW,244,0.0,2.0,79,0.00,,,0.00,VWS V14.00,2013-02-13 07:50:00,
2013-02-13 01:55:00,27.7,22.0,29.95,WSW,241,0.0,2.0,79,0.00,,,0.00,VWS V14.00,2013-02-13 07:55:00,
2013-02-13 02:00:00,27.6,22.0,29.95,WSW,242,0.0,2.0,79,0.00,,,0.00,VWS V14.00,2013-02-13 08:00:00,
2013-02-13 02:05:00,27.6,22.0,29.95,WSW,244,0.0,0.0,79,0.00,,,0.00,VWS V14.00,2013-02-13 08:05:00,
2013-02-13 02:10:00,27.6,22.0,29.95,WSW,244,0.0,0.0,79,0.00,,,0.00,VWS V14.00,2013-02-13 08:10:00,
2013-02-13 02:15:00,27.6,22.0,29.95,WSW,244,0.0,0.0,79,0.00,,,0.00,VWS V14.00,2013-02-13 08:15:00,
2013-02-13 02:20:00,27.5,21.9,29.95,WSW,244,0.0,0.0,79,0.00,,,0.00,VWS V14.00,2013-02-13 08:20:00,
2013-02-13 02:25:00,27.5,21.9,29.95,WSW,242,0.0,0.0,79,0.00,,,0.00,VWS V14.00,2013-02-13 08:25:00,
2013-02-13 02:30:00,27.5,21.9,29.95,WSW,248,0.0,0.0,79,0.00,,,0.00,VWS V14.00,2013-02-13 08:30:00,
2013-02-13 02:35:00,27.5,21.9,29.95,WSW,252,0.0,0.0,79,0.00,,,0.00,VWS V14.00,2013-02-13 08:35:00,
2013-02-13 02:40:00,27.5,22.1,29.95,West,259,0.0,0.0,80,0.00,,,0.00,VWS V14.00,2013-02-13 08:40:00,
2013-02-13 02:45:00,27.5,22.1,29.95,West,259,0.0,0.0,80,0.00,,,0.00,VWS V14.00,2013-02-13 08:45:00,
2013-02-13 02:50:00,27.4,22.0,29.95,West,259,0.0,0.0,80,0.00,,,0.00,VWS V14.00,2013-02-13 08:50:00,
2013-02-13 02:55:00,27.3,21.7,29.95,West,261,0.0,0.0,79,0.00,,,0.00,VWS V14.00,2013-02-13 08:55:00,
2013-02-13 03:00:00,27.2,21.6,29.94,West,261,0.0,0.0,79,0.00,,,0.00,VWS V14.00,2013-02-13 09:00:00,
2013-02-13 03:05:00,27.3,22.0,29.94,West,262,0.0,0.0,80,0.00,,,0.00,VWS V14.00,2013-02-13 09:05:00,
2013-02-13 03:10:00,27.3,22.2,29.94,West,263,0.0,0.0,81,0.00,,,0.00,VWS V14.00,2013-02-13 09:10:00,
2013-02-13 03:15:00,27.2,21.9,29.94,West,277,0.0,3.0,80,0.00,,,0.00,VWS V14.00,2013-02-13 09:15:00,
2013-02-13 03:20:00,27.1,21.8,29.94,West,265,1.0,3.0,80,0.00,,,0.00,VWS V14.00,2013-02-13 09:20:00,
2013-02-13 03:25:00,27.2,22.1,29.94,West,278,1.0,3.0,81,0.00,,,0.00,VWS V14.00,2013-02-13 09:25:00,
2013-02-13 03:30:00,27.2,22.1,29.93,West,276,0.0,3.0,81,0.00,,,0.00,VWS V14.00,2013-02-13 09:30:00,
2013-02-13 03:35:00,27.1,22.1,29.93,West,277,0.0,0.0,81,0.00,,,0.00,VWS V14.00,2013-02-13 09:35:00,
2013-02-13 03:40:00,27.0,22.0,29.93,West,276,0.0,0.0,81,0.00,,,0.00,VWS V14.00,2013-02-13 09:40:00,
2013-02-13 03:45:00,27.0,22.0,29.93,West,276,0.0,0.0,81,0.00,,,0.00,VWS V14.00,2013-02-13 09:45:00,
2013-02-13 03:50:00,27.0,22.0,29.93,West,277,0.0,0.0,81,0.00,,,0.00,VWS V14.00,2013-02-13 09:50:00,
2013-02-13 03:55:00,27.0,22.0,29.93,West,276,0.0,0.0,81,0.00,,,0.00,VWS V14.00,2013-02-13 09:55:00,
2013-02-13 04:00:00,26.9,21.9,29.93,West,276,0.0,0.0,81,0.00,,,0.00,VWS V14.00,2013-02-13 10:00:00,
2013-02-13 04:05:00,26.8,21.8,29.92,West,276,0.0,0.0,81,0.00,,,0.00,VWS V14.00,2013-02-13 10:05:00,
2013-02-13 04:10:00,26.9,22.1,29.92,West,276,0.0,0.0,82,0.00,,,0.00,VWS V14.00,2013-02-13 10:10:00,
2013-02-13 04:15:00,26.8,21.8,29.92,West,276,0.0,0.0,81,0.00,,,0.00,VWS V14.00,2013-02-13 10:15:00,
2013-02-13 04:20:00,26.7,21.7,29.92,West,276,0.0,0.0,81,0.00,,,0.00,VWS V14.00,2013-02-13 10:20:00,
2013-02-13 04:25:00,26.6,21.6,29.92,West,276,0.0,0.0,81,0.00,,,0.00,VWS V14.00,2013-02-13 10:25:00,
2013-02-13 04:30:00,26.7,22.0,29.92,West,276,0.0,0.0,82,0.00,,,0.00,VWS V14.00,2013-02-13 10:30:00,
2013-02-13 04:35:00,26.7,22.0,29.92,West,276,0.0,0.0,82,0.00,,,0.00,VWS V14.00,2013-02-13 10:35:00,
2013-02-13 04:40:00,26.6,21.9,29.92,West,276,0.0,0.0,82,0.00,,,0.00,VWS V14.00,2013-02-13 10:40:00,
2013-02-13 04:45:00,26.4,21.4,29.91,West,276,0.0,0.0,81,0.00,,,0.00,VWS V14.00,2013-02-13 10:45:00,
2013-02-13 04:50:00,26.3,21.6,29.91,West,276,0.0,0.0,82,0.00,,,0.00,VWS V14.00,2013-02-13 10:50:00,
2013-02-13 04:55:00,26.3,21.6,29.91,West,276,0.0,0.0,82,0.00,,,0.00,VWS V14.00,2013-02-13 10:55:00,
2013-02-13 05:00:00,26.2,21.5,29.91,West,276,0.0,0.0,82,0.00,,,0.00,VWS V14.00,2013-02-13 11:00:00,
2013-02-13 05:05:00,26.1,21.4,29.91,West,276,0.0,0.0,82,0.00,,,0.00,VWS V14.00,2013-02-13 11:05:00,
2013-02-13 05:10:00,25.9,20.9,29.91,West,276,0.0,0.0,81,0.00,,,0.00,VWS V14.00,2013-02-13 11:10:00,
2013-02-13 05:15:00,25.7,20.7,29.91,West,276,0.0,0.0,81,0.00,,,0.00,VWS V14.00,2013-02-13 11:15:00,
2013-02-13 05:20:00,25.6,20.6,29.91,West,276,0.0,0.0,81,0.00,,,0.00,VWS V14.00,2013-02-13 11:20:00,
2013-02-13 05:25:00,25.5,20.8,29.91,West,276,0.0,0.0,82,0.00,,,0.00,VWS V14.00,2013-02-13 11:25:00,
2013-02-13 05:30:00,25.4,20.4,29.91,West,276,0.0,0.0,81,0.00,,,0.00,VWS V14.00,2013-02-13 11:30:00,
2013-02-13 05:35:00,25.3,20.6,29.91,West,276,0.0,0.0,82,0.00,,,0.00,VWS V14.00,2013-02-13 11:35:00,
2013-02-13 05:40:00,25.1,20.1,29.90,West,276,0.0,0.0,81,0.00,,,0.00,VWS V14.00,2013-02-13 11:40:00,
2013-02-13 05:44:00,24.9,20.2,29.90,West,276,0.0,0.0,82,0.00,,,0.00,VWS V14.00,2013-02-13 11:44:00,
2013-02-13 05:49:00,24.7,20.0,29.91,West,276,0.0,0.0,82,0.00,,,0.00,VWS V14.00,2013-02-13 11:49:00,
2013-02-13 05:54:00,24.7,20.0,29.91,West,276,0.0,0.0,82,0.00,,,0.00,VWS V14.00,2013-02-13 11:54:00,
2013-02-13 05:59:00,24.8,20.4,29.91,West,276,0.0,0.0,83,0.00,,,0.00,VWS V14.00,2013-02-13 11:59:00,
2013-02-13 06:04:00,24.9,20.5,29.91,West,276,0.0,0.0,83,0.00,,,0.00,VWS V14.00,2013-02-13 12:04:00,
2013-02-13 06:09:00,25.3,21.1,29.92,WSW,250,1.0,3.0,84,0.00,,,0.00,VWS V14.00,2013-02-13 12:09:00,
2013-02-13 06:14:00,25.7,21.8,29.92,West,268,1.0,3.0,85,0.00,,,0.00,VWS V14.00,2013-02-13 12:14:00,
2013-02-13 06:19:00,25.7,21.8,29.90,West,268,0.0,3.0,85,0.00,,,0.00,VWS V14.00,2013-02-13 12:19:00,
2013-02-13 06:24:00,25.7,21.8,29.90,West,268,0.0,3.0,85,0.00,,,0.00,VWS V14.00,2013-02-13 12:24:00,
2013-02-13 06:29:00,25.7,21.5,29.91,West,268,0.0,3.0,84,0.00,,,0.00,VWS V14.00,2013-02-13 12:29:00,
2013-02-13 06:34:00,25.7,21.5,29.91,West,268,0.0,3.0,84,0.00,,,0.00,VWS V14.00,2013-02-13 12:34:00,
2013-02-13 06:39:00,25.6,21.5,29.91,West,268,0.0,0.0,84,0.00,,,0.00,VWS V14.00,2013-02-13 12:39:00,
2013-02-13 06:44:00,25.6,21.5,29.91,West,268,0.0,0.0,84,0.00,,,0.00,VWS V14.00,2013-02-13 12:44:00,
2013-02-13 06:49:00,25.5,21.4,29.91,West,268,0.0,0.0,84,0.00,,,0.00,VWS V14.00,2013-02-13 12:49:00,
2013-02-13 06:54:00,25.6,21.7,29.91,WSW,258,0.0,1.0,85,0.00,,,0.00,VWS V14.00,2013-02-13 12:54:00,
2013-02-13 06:59:00,25.7,21.8,29.91,West,271,0.0,3.0,85,0.00,,,0.00,VWS V14.00,2013-02-13 12:59:00,
2013-02-13 07:04:00,25.8,21.6,29.91,West,271,0.0,3.0,84,0.00,,,0.00,VWS V14.00,2013-02-13 13:04:00,
2013-02-13 07:09:00,25.9,22.0,29.91,West,271,0.0,2.0,85,0.00,,,0.00,VWS V14.00,2013-02-13 13:09:00,
2013-02-13 07:14:00,26.0,22.1,29.91,West,263,0.0,2.0,85,0.00,,,0.00,VWS V14.00,2013-02-13 13:14:00,
2013-02-13 07:19:00,26.1,22.2,29.91,West,263,0.0,2.0,85,0.00,,,0.00,VWS V14.00,2013-02-13 13:19:00,
2013-02-13 07:24:00,26.1,22.2,29.91,West,263,0.0,2.0,85,0.00,,,0.00,VWS V14.00,2013-02-13 13:24:00,
2013-02-13 07:29:00,26.2,22.3,29.90,West,263,0.0,2.0,85,0.00,,,0.00,VWS V14.00,2013-02-13 13:29:00,
2013-02-13 07:34:00,26.3,22.4,29.90,West,261,2.0,2.0,85,0.00,,,0.00,VWS V14.00,2013-02-13 13:34:00,
2013-02-13 07:39:00,26.4,22.5,29.90,West,262,0.0,1.0,85,0.00,,,0.00,VWS V14.00,2013-02-13 13:39:00,
2013-02-13 07:44:00,26.8,22.9,29.90,West,263,1.0,3.0,85,0.00,,,0.00,VWS V14.00,2013-02-13 13:44:00,
2013-02-13 07:49:00,27.0,23.1,29.91,West,263,0.0,3.0,85,0.00,,,0.00,VWS V14.00,2013-02-13 13:49:00,
2013-02-13 07:54:00,27.2,23.3,29.91,West,265,1.0,3.0,85,0.00,,,0.00,VWS V14.00,2013-02-13 13:54:00,
2013-02-13 07:59:00,27.7,24.1,29.91,West,266,0.0,3.0,86,0.00,,,0.00,VWS V14.00,2013-02-13 13:59:00,
2013-02-13 08:04:00,27.9,24.0,29.91,West,266,0.0,3.0,85,0.00,,,0.00,VWS V14.00,2013-02-13 14:04:00,
2013-02-13 08:09:00,28.0,24.1,29.91,West,266,0.0,0.0,85,0.00,,,0.00,VWS V14.00,2013-02-13 14:09:00,
2013-02-13 08:14:00,28.4,24.8,29.91,West,266,0.0,0.0,86,0.00,,,0.00,VWS V14.00,2013-02-13 14:14:00,
2013-02-13 08:19:00,28.6,24.7,29.91,West,266,0.0,0.0,85,0.00,,,0.00,VWS V14.00,2013-02-13 14:19:00,
2013-02-13 08:24:00,28.6,24.7,29.91,West,265,0.0,0.0,85,0.00,,,0.00,VWS V14.00,2013-02-13 14:24:00,
2013-02-13 08:29:00,28.9,25.0,29.91,West,265,0.0,0.0,85,0.00,,,0.00,VWS V14.00,2013-02-13 14:29:00,
2013-02-13 08:34:00,29.2,25.0,29.91,West,261,0.0,3.0,84,0.00,,,0.00,VWS V14.00,2013-02-13 14:34:00,
2013-02-13 08:39:00,29.4,25.2,29.91,West,273,0.0,5.0,84,0.00,,,0.00,VWS V14.00,2013-02-13 14:39:00,
2013-02-13 08:44:00,29.9,26.0,29.91,West,275,0.0,5.0,85,0.00,,,0.00,VWS V14.00,2013-02-13 14:44:00,
2013-02-13 08:49:00,30.1,25.9,29.91,West,275,0.0,5.0,84,0.00,,,0.00,VWS V14.00,2013-02-13 14:49:00,
2013-02-13 08:54:00,30.2,25.7,29.91,WSW,253,1.0,5.0,83,0.00,,,0.00,VWS V14.00,2013-02-13 14:54:00,
2013-02-13 08:59:00,30.4,25.9,29.91,West,272,2.0,5.0,83,0.00,,,0.00,VWS V14.00,2013-02-13 14:59:00,
2013-02-13 09:04:00,30.5,26.0,29.91,West,279,5.0,5.0,83,0.00,,,0.00,VWS V14.00,2013-02-13 15:04:00,
2013-02-13 09:09:00,30.6,25.8,29.91,WSW,252,3.0,4.0,82,0.00,,,0.00,VWS V14.00,2013-02-13 15:09:00,
2013-02-13 09:14:00,30.9,26.1,29.91,West,270,0.0,4.0,82,0.00,,,0.00,VWS V14.00,2013-02-13 15:14:00,
2013-02-13 09:19:00,31.4,26.5,29.91,West,281,0.0,4.0,82,0.00,,,0.00,VWS V14.00,2013-02-13 15:19:00,
2013-02-13 09:24:00,31.8,26.6,29.91,West,269,0.0,6.0,81,0.00,,,0.00,VWS V14.00,2013-02-13 15:24:00,
2013-02-13 09:29:00,32.6,27.7,29.91,WNW,284,0.0,6.0,82,0.00,,,0.00,VWS V14.00,2013-02-13 15:29:00,
2013-02-13 09:34:00,33.3,28.1,29.91,WNW,283,5.0,8.0,81,0.00,,,0.00,VWS V14.00,2013-02-13 15:34:00,
2013-02-13 09:39:00,33.4,27.3,29.90,West,281,7.0,10.0,78,0.00,,,0.00,VWS V14.00,2013-02-13 15:39:00,
2013-02-13 09:44:00,33.6,27.5,29.90,WNW,284,4.0,10.0,78,0.00,,,0.00,VWS V14.00,2013-02-13 15:44:00,
2013-02-13 09:49:00,34.3,28.2,29.89,WSW,242,2.0,10.0,78,0.00,,,0.00,VWS V14.00,2013-02-13 15:49:00,
2013-02-13 09:54:00,34.6,27.8,29.89,West,273,0.0,10.0,76,0.00,,,0.00,VWS V14.00,2013-02-13 15:54:00,
2013-02-13 09:59:00,35.3,28.2,29.89,West,267,0.0,10.0,75,0.00,,,0.00,VWS V14.00,2013-02-13 15:59:00,
2013-02-13 10:04:00,35.7,28.2,29.89,West,266,0.0,10.0,74,0.00,,,0.00,VWS V14.00,2013-02-13 16:04:00,
2013-02-13 10:09:00,36.1,28.3,29.89,SW,233,0.0,4.0,73,0.00,,,0.00,VWS V14.00,2013-02-13 16:09:00,
2013-02-13 10:14:00,36.6,28.4,29.89,WSW,238,4.0,5.0,72,0.00,,,0.00,VWS V14.00,2013-02-13 16:14:00,
2013-02-13 10:19:00,37.0,28.8,29.89,WSW,250,0.0,5.0,72,0.00,,,0.00,VWS V14.00,2013-02-13 16:19:00,
2013-02-13 10:24:00,37.7,29.8,29.89,West,277,1.0,5.0,73,0.00,,,0.00,VWS V14.00,2013-02-13 16:24:00,
2013-02-13 10:29:00,38.2,29.3,29.89,West,261,5.0,6.0,70,0.00,,,0.00,VWS V14.00,2013-02-13 16:29:00,
2013-02-13 10:34:00,38.6,29.7,29.89,WSW,254,3.0,6.0,70,0.00,,,0.00,VWS V14.00,2013-02-13 16:34:00,
2013-02-13 10:39:00,39.0,30.1,29.89,SW,228,6.0,6.0,70,0.00,,,0.00,VWS V14.00,2013-02-13 16:39:00,
2013-02-13 10:44:00,39.7,30.4,29.89,SW,219,5.0,9.0,69,0.00,,,0.00,VWS V14.00,2013-02-13 16:44:00,
2013-02-13 10:49:00,40.0,30.3,29.89,West,268,6.0,9.0,68,0.00,,,0.00,VWS V14.00,2013-02-13 16:49:00,
2013-02-13 10:54:00,40.5,30.8,29.89,WSW,240,4.0,9.0,68,0.00,,,0.00,VWS V14.00,2013-02-13 16:54:00,
2013-02-13 10:59:00,41.0,30.9,29.89,WSW,240,0.0,9.0,67,0.00,,,0.00,VWS V14.00,2013-02-13 16:59:00,
2013-02-13 11:04:00,41.7,30.8,29.89,WSW,252,2.0,9.0,65,0.00,,,0.00,VWS V14.00,2013-02-13 17:04:00,
2013-02-13 11:09:00,42.1,30.8,29.89,West,272,0.0,7.0,64,0.00,,,0.00,VWS V14.00,2013-02-13 17:09:00,
2013-02-13 11:14:00,43.2,32.6,29.89,West,270,4.0,9.0,66,0.00,,,0.00,VWS V14.00,2013-02-13 17:14:00,
2013-02-13 11:19:00,43.6,31.5,29.88,West,269,6.0,9.0,62,0.00,,,0.00,VWS V14.00,2013-02-13 17:19:00,
2013-02-13 11:23:00,43.8,31.2,29.88,West,266,3.0,9.0,61,0.00,,,0.00,VWS V14.00,2013-02-13 17:23:00,
2013-02-13 11:28:00,43.8,30.8,29.88,WSW,243,4.0,10.0,60,0.00,,,0.00,VWS V14.00,2013-02-13 17:28:00,
2013-02-13 11:33:00,43.9,30.9,29.88,SSW,203,4.0,11.0,60,0.00,,,0.00,VWS V14.00,2013-02-13 17:33:00,
2013-02-13 11:38:00,44.4,31.8,29.88,WSW,240,5.0,7.0,61,0.00,,,0.00,VWS V14.00,2013-02-13 17:38:00,
2013-02-13 11:43:00,45.0,31.5,29.88,South,172,3.0,9.0,59,0.00,,,0.00,VWS V14.00,2013-02-13 17:43:00,
2013-02-13 11:48:00,45.4,31.9,29.87,WSW,242,0.0,9.0,59,0.00,,,0.00,VWS V14.00,2013-02-13 17:48:00,
2013-02-13 11:53:00,45.8,32.3,29.87,SSW,202,0.0,9.0,59,0.00,,,0.00,VWS V14.00,2013-02-13 17:53:00,
2013-02-13 11:58:00,45.9,31.5,29.87,WSW,252,5.0,11.0,57,0.00,,,0.00,VWS V14.00,2013-02-13 17:58:00,
2013-02-13 12:03:00,45.8,31.9,29.86,SW,219,4.0,14.0,58,0.00,,,0.00,VWS V14.00,2013-02-13 18:03:00,
2013-02-13 12:08:00,46.0,31.2,29.86,SW,234,4.0,10.0,56,0.00,,,0.00,VWS V14.00,2013-02-13 18:08:00,
2013-02-13 12:13:00,46.4,31.6,29.86,SW,223,8.0,10.0,56,0.00,,,0.00,VWS V14.00,2013-02-13 18:13:00,
2013-02-13 12:18:00,46.6,31.3,29.86,West,276,4.0,13.0,55,0.00,,,0.00,VWS V14.00,2013-02-13 18:18:00,
2013-02-13 12:23:00,46.9,30.7,29.86,WSW,241,7.0,13.0,53,0.00,,,0.00,VWS V14.00,2013-02-13 18:23:00,
2013-02-13 12:28:00,47.0,31.2,29.85,WSW,242,9.0,13.0,54,0.00,,,0.00,VWS V14.00,2013-02-13 18:28:00,
2013-02-13 12:33:00,47.2,31.0,29.85,WSW,242,3.0,13.0,53,0.00,,,0.00,VWS V14.00,2013-02-13 18:33:00,
2013-02-13 12:38:00,47.9,31.1,29.85,West,279,7.0,12.0,52,0.00,,,0.00,VWS V14.00,2013-02-13 18:38:00,
2013-02-13 12:43:00,48.3,31.5,29.85,WSW,250,10.0,13.0,52,0.00,,,0.00,VWS V14.00,2013-02-13 18:43:00,
2013-02-13 12:48:00,48.5,32.2,29.84,West,275,6.0,14.0,53,0.00,,,0.00,VWS V14.00,2013-02-13 18:48:00,
2013-02-13 12:53:00,48.9,31.6,29.84,WSW,238,3.0,14.0,51,0.00,,,0.00,VWS V14.00,2013-02-13 18:53:00,
2013-02-13 12:58:00,49.5,31.6,29.84,WSW,252,2.0,14.0,50,0.00,,,0.00,VWS V14.00,2013-02-13 18:58:00,
2013-02-13 13:03:00,49.7,31.3,29.84,WSW,246,4.0,14.0,49,0.00,,,0.00,VWS V14.00,2013-02-13 19:03:00,
2013-02-13 13:08:00,49.9,31.5,29.84,SW,227,5.0,12.0,49,0.00,,,0.00,VWS V14.00,2013-02-13 19:08:00,
2013-02-13 13:13:00,49.9,31.5,29.83,West,261,9.0,12.0,49,0.00,,,0.00,VWS V14.00,2013-02-13 19:13:00,
2013-02-13 13:18:00,50.1,31.2,29.83,SW,236,9.0,13.0,48,0.00,,,0.00,VWS V14.00,2013-02-13 19:18:00,
2013-02-13 13:23:00,50.3,31.4,29.83,WSW,251,9.0,15.0,48,0.00,,,0.00,VWS V14.00,2013-02-13 19:23:00,
2013-02-13 13:28:00,50.5,31.0,29.83,SW,234,5.0,15.0,47,0.00,,,0.00,VWS V14.00,2013-02-13 19:28:00,
2013-02-13 13:33:00,51.0,31.0,29.83,WSW,252,4.0,15.0,46,0.00,,,0.00,VWS V14.00,2013-02-13 19:33:00,
2013-02-13 13:38:00,51.3,30.7,29.83,WSW,246,5.0,13.0,45,0.00,,,0.00,VWS V14.00,2013-02-13 19:38:00,
2013-02-13 13:43:00,51.3,30.7,29.83,WNW,298,5.0,16.0,45,0.00,,,0.00,VWS V14.00,2013-02-13 19:43:00,
2013-02-13 13:48:00,51.4,30.2,29.82,WSW,258,3.0,16.0,44,0.00,,,0.00,VWS V14.00,2013-02-13 19:48:00,
2013-02-13 13:53:00,51.6,29.9,29.82,West,272,14.0,16.0,43,0.00,,,0.00,VWS V14.00,2013-02-13 19:53:00,
2013-02-13 13:58:00,51.5,29.2,29.82,West,267,4.0,16.0,42,0.00,,,0.00,VWS V14.00,2013-02-13 19:58:00,
2013-02-13 14:03:00,51.6,30.4,29.82,West,264,4.0,16.0,44,0.00,,,0.00,VWS V14.00,2013-02-13 20:03:00,
2013-02-13 14:08:00,51.9,29.0,29.82,WNW,284,5.0,17.0,41,0.00,,,0.00,VWS V14.00,2013-02-13 20:08:00,
2013-02-13 14:13:00,51.8,29.5,29.82,WNW,288,7.0,18.0,42,0.00,,,0.00,VWS V14.00,2013-02-13 20:13:00,
2013-02-13 14:18:00,51.8,29.5,29.82,West,259,5.0,18.0,42,0.00,,,0.00,VWS V14.00,2013-02-13 20:18:00,
2013-02-13 14:23:00,52.1,29.7,29.81,West,267,4.0,18.0,42,0.00,,,0.00,VWS V14.00,2013-02-13 20:23:00,
2013-02-13 14:28:00,52.3,29.9,29.81,WSW,246,6.0,18.0,42,0.00,,,0.00,VWS V14.00,2013-02-13 20:28:00,
2013-02-13 14:33:00,52.3,29.9,29.81,West,268,2.0,18.0,42,0.00,,,0.00,VWS V14.00,2013-02-13 20:33:00,
2013-02-13 14:38:00,52.3,29.9,29.81,WSW,238,13.0,20.0,42,0.00,,,0.00,VWS V14.00,2013-02-13 20:38:00,
2013-02-13 14:43:00,52.1,30.3,29.80,WSW,245,4.0,20.0,43,0.00,,,0.00,VWS V14.00,2013-02-13 20:43:00,
2013-02-13 14:48:00,52.3,30.5,29.80,West,267,4.0,20.0,43,0.00,,,0.00,VWS V14.00,2013-02-13 20:48:00,
2013-02-13 14:53:00,52.4,30.0,29.80,SSW,209,6.0,20.0,42,0.00,,,0.00,VWS V14.00,2013-02-13 20:53:00,
2013-02-13 14:58:00,52.3,29.3,29.80,WSW,257,5.0,20.0,41,0.00,,,0.00,VWS V14.00,2013-02-13 20:58:00,
2013-02-13 15:03:00,52.4,29.4,29.79,South,190,3.0,20.0,41,0.00,,,0.00,VWS V14.00,2013-02-13 21:03:00,
2013-02-13 15:08:00,52.4,29.4,29.79,WNW,283,1.0,13.0,41,0.00,,,0.00,VWS V14.00,2013-02-13 21:08:00,
2013-02-13 15:13:00,52.9,29.9,29.78,SW,227,2.0,13.0,41,0.00,,,0.00,VWS V14.00,2013-02-13 21:13:00,
2013-02-13 15:18:00,53.0,30.0,29.78,WSW,238,8.0,13.0,41,0.00,,,0.00,VWS V14.00,2013-02-13 21:18:00,
2013-02-13 15:23:00,52.9,29.9,29.78,WSW,250,7.0,14.0,41,0.00,,,0.00,VWS V14.00,2013-02-13 21:23:00,
2013-02-13 15:28:00,52.8,29.2,29.79,SSW,213,6.0,17.0,40,0.00,,,0.00,VWS V14.00,2013-02-13 21:28:00,
2013-02-13 15:33:00,52.9,29.9,29.79,West,277,2.0,17.0,41,0.00,,,0.00,VWS V14.00,2013-02-13 21:33:00,
2013-02-13 15:38:00,53.0,29.3,29.79,WNW,288,3.0,13.0,40,0.00,,,0.00,VWS V14.00,2013-02-13 21:38:00,
2013-02-13 15:43:00,52.9,29.2,29.79,West,266,5.0,14.0,40,0.00,,,0.00,VWS V14.00,2013-02-13 21:43:00,
2013-02-13 15:48:00,52.6,29.0,29.78,West,276,3.0,15.0,40,0.00,,,0.00,VWS V14.00,2013-02-13 21:48:00,
2013-02-13 15:53:00,52.4,29.4,29.79,SW,229,4.0,15.0,41,0.00,,,0.00,VWS V14.00,2013-02-13 21:53:00,
2013-02-13 15:59:00,52.2,28.6,29.78,WSW,240,5.0,15.0,40,0.00,,,0.00,VWS V14.00,2013-02-13 21:59:00,
2013-02-13 16:04:00,52.0,30.2,29.78,SW,236,5.0,15.0,43,0.00,,,0.00,VWS V14.00,2013-02-13 22:04:00,
2013-02-13 16:09:00,52.0,29.0,29.78,SW,231,1.0,12.0,41,0.00,,,0.00,VWS V14.00,2013-02-13 22:09:00,
2013-02-13 16:14:00,52.1,29.1,29.78,SW,234,3.0,12.0,41,0.00,,,0.00,VWS V14.00,2013-02-13 22:14:00,
2013-02-13 16:19:00,52.4,29.4,29.78,SW,235,5.0,12.0,41,0.00,,,0.00,VWS V14.00,2013-02-13 22:19:00,
2013-02-13 16:24:00,52.5,29.5,29.78,West,264,6.0,13.0,41,0.00,,,0.00,VWS V14.00,2013-02-13 22:24:00,
2013-02-13 16:29:00,52.6,29.6,29.78,SW,225,7.0,13.0,41,0.00,,,0.00,VWS V14.00,2013-02-13 22:29:00,
2013-02-13 16:34:00,52.6,29.6,29.78,West,277,0.0,14.0,41,0.00,,,0.00,VWS V14.00,2013-02-13 22:34:00,
2013-02-13 16:52:00,52.8,30.4,29.77,SW,236,1.0,13.0,42,0.00,,,0.00,VWS V14.00,2013-02-13 22:52:00,
2013-02-13 16:57:00,52.9,30.5,29.77,SW,234,0.0,13.0,42,0.00,,,0.00,VWS V14.00,2013-02-13 22:57:00,
2013-02-13 17:02:00,52.8,30.4,29.78,WSW,242,3.0,13.0,42,0.00,,,0.00,VWS V14.00,2013-02-13 23:02:00,
2013-02-13 17:07:00,52.8,30.9,29.78,WSW,257,0.0,7.0,43,0.00,,,0.00,VWS V14.00,2013-02-13 23:07:00,
2013-02-13 17:12:00,52.6,30.8,29.78,WSW,253,3.0,7.0,43,0.00,,,0.00,VWS V14.00,2013-02-13 23:12:00,
2013-02-13 17:17:00,52.4,30.6,29.78,West,277,0.0,8.0,43,0.00,,,0.00,VWS V14.00,2013-02-13 23:17:00,
2013-02-13 17:22:00,52.1,30.9,29.78,WSW,238,2.0,8.0,44,0.00,,,0.00,VWS V14.00,2013-02-13 23:22:00,
2013-02-13 17:27:00,51.9,30.7,29.78,West,275,0.0,8.0,44,0.00,,,0.00,VWS V14.00,2013-02-13 23:27:00,
2013-02-13 17:32:00,51.5,30.9,29.78,WSW,250,3.0,8.0,45,0.00,,,0.00,VWS V14.00,2013-02-13 23:32:00,
2013-02-13 17:36:00,51.2,30.6,29.78,WSW,239,0.0,6.0,45,0.00,,,0.00,VWS V14.00,2013-02-13 23:36:00,
2013-02-13 17:41:00,50.8,30.8,29.79,West,276,3.0,6.0,46,0.00,,,0.00,VWS V14.00,2013-02-13 23:41:00,
2013-02-13 17:46:00,50.5,31.0,29.78,WNW,284,0.0,9.0,47,0.00,,,0.00,VWS V14.00,2013-02-13 23:46:00,
2013-02-13 17:51:00,50.2,30.8,29.79,West,266,0.0,9.0,47,0.00,,,0.00,VWS V14.00,2013-02-13 23:51:00,
2013-02-13 17:56:00,50.1,32.2,29.79,West,269,0.0,9.0,50,0.00,,,0.00,VWS V14.00,2013-02-13 23:56:00,
2013-02-13 18:01:00,50.1,32.2,29.79,WNW,291,3.0,9.0,50,0.00,,,0.00,VWS V14.00,2013-02-14 00:01:00,
2013-02-13 18:06:00,49.9,31.0,29.79,WSW,253,1.0,5.0,48,0.00,,,0.00,VWS V14.00,2013-02-14 00:06:00,
2013-02-13 18:11:00,49.6,30.7,29.79,West,270,6.0,7.0,48,0.00,,,0.00,VWS V14.00,2013-02-14 00:11:00,
2013-02-13 18:16:00,49.2,30.4,29.79,WNW,287,3.0,7.0,48,0.00,,,0.00,VWS V14.00,2013-02-14 00:16:00,
2013-02-13 18:21:00,48.9,30.6,29.80,West,276,2.0,7.0,49,0.00,,,0.00,VWS V14.00,2013-02-14 00:21:00,
2013-02-13 18:26:00,48.6,30.3,29.80,WNW,292,2.0,9.0,49,0.00,,,0.00,VWS V14.00,2013-02-14 00:26:00,
2013-02-13 18:31:00,48.5,33.5,29.80,WNW,287,0.0,9.0,56,0.00,,,0.00,VWS V14.00,2013-02-14 00:31:00,
2013-02-13 18:36:00,48.5,30.7,29.80,WNW,293,0.0,5.0,50,0.00,,,0.00,VWS V14.00,2013-02-14 00:36:00,
2013-02-13 18:41:00,48.2,30.5,29.80,WNW,296,0.0,5.0,50,0.00,,,0.00,VWS V14.00,2013-02-14 00:41:00,
2013-02-13 18:46:00,47.7,30.0,29.80,WNW,288,3.0,7.0,50,0.00,,,0.00,VWS V14.00,2013-02-14 00:46:00,
2013-02-13 18:51:00,47.2,30.0,29.80,West,279,0.0,7.0,51,0.00,,,0.00,VWS V14.00,2013-02-14 00:51:00,
2013-02-13 18:56:00,46.7,29.5,29.80,WNW,294,5.0,8.0,51,0.00,,,0.00,VWS V14.00,2013-02-14 00:56:00,
2013-02-13 19:01:00,46.6,32.2,29.80,WNW,292,0.0,8.0,57,0.00,,,0.00,VWS V14.00,2013-02-14 01:01:00,
2013-02-13 19:06:00,46.3,29.6,29.81,West,269,2.0,4.0,52,0.00,,,0.00,VWS V14.00,2013-02-14 01:06:00,
2013-02-13 19:11:00,45.8,29.2,29.80,West,276,0.0,5.0,52,0.00,,,0.00,VWS V14.00,2013-02-14 01:11:00,
2013-02-13 19:16:00,45.4,29.3,29.80,WNW,286,0.0,5.0,53,0.00,,,0.00,VWS V14.00,2013-02-14 01:16:00,
2013-02-13 19:21:00,45.1,29.0,29.80,WNW,284,0.0,5.0,53,0.00,,,0.00,VWS V14.00,2013-02-14 01:21:00,
2013-02-13 19:26:00,44.9,31.0,29.80,WNW,282,0.0,5.0,58,0.00,,,0.00,VWS V14.00,2013-02-14 01:26:00,
2013-02-13 19:31:00,44.8,30.1,29.80,West,271,1.0,6.0,56,0.00,,,0.00,VWS V14.00,2013-02-14 01:31:00,
2013-02-13 19:36:00,44.4,29.3,29.81,West,261,0.0,3.0,55,0.00,,,0.00,VWS V14.00,2013-02-14 01:36:00,
2013-02-13 19:41:00,44.0,29.3,29.81,West,280,0.0,6.0,56,0.00,,,0.00,VWS V14.00,2013-02-14 01:41:00,
2013-02-13 19:46:00,43.6,29.0,29.81,West,265,3.0,6.0,56,0.00,,,0.00,VWS V14.00,2013-02-14 01:46:00,
2013-02-13 19:51:00,43.3,29.5,29.81,West,273,3.0,6.0,58,0.00,,,0.00,VWS V14.00,2013-02-14 01:51:00,
2013-02-13 19:56:00,43.3,30.0,29.81,West,271,3.0,6.0,59,0.00,,,0.00,VWS V14.00,2013-02-14 01:56:00,
2013-02-13 20:01:00,43.1,29.3,29.81,West,279,0.0,6.0,58,0.00,,,0.00,VWS V14.00,2013-02-14 02:01:00,
2013-02-13 20:06:00,42.8,29.1,29.81,WNW,287,0.0,6.0,58,0.00,,,0.00,VWS V14.00,2013-02-14 02:06:00,
2013-02-13 20:11:00,42.5,28.8,29.81,West,276,5.0,7.0,58,0.00,,,0.00,VWS V14.00,2013-02-14 02:11:00,
2013-02-13 20:16:00,42.3,30.6,29.81,West,271,3.0,8.0,63,0.00,,,0.00,VWS V14.00,2013-02-14 02:16:00,
2013-02-13 20:21:00,42.5,30.4,29.81,West,275,0.0,8.0,62,0.00,,,0.00,VWS V14.00,2013-02-14 02:21:00,
2013-02-13 20:26:00,42.3,29.0,29.81,West,273,2.0,9.0,59,0.00,,,0.00,VWS V14.00,2013-02-14 02:26:00,
2013-02-13 20:31:00,42.1,29.2,29.81,WNW,287,0.0,9.0,60,0.00,,,0.00,VWS V14.00,2013-02-14 02:31:00,
2013-02-13 20:36:00,42.0,29.1,29.81,WSW,244,3.0,7.0,60,0.00,,,0.00,VWS V14.00,2013-02-14 02:36:00,
2013-02-13 20:41:00,41.9,29.0,29.81,WSW,249,4.0,9.0,60,0.00,,,0.00,VWS V14.00,2013-02-14 02:41:00,
2013-02-13 20:46:00,41.8,29.0,29.81,West,275,3.0,10.0,60,0.00,,,0.00,VWS V14.00,2013-02-14 02:46:00,
2013-02-13 20:51:00,42.0,32.2,29.81,West,277,4.0,10.0,68,0.00,,,0.00,VWS V14.00,2013-02-14 02:51:00,
2013-02-13 20:56:00,42.1,29.6,29.81,WSW,252,4.0,10.0,61,0.00,,,0.00,VWS V14.00,2013-02-14 02:56:00,
2013-02-13 21:01:00,41.9,29.5,29.81,WNW,303,3.0,10.0,61,0.00,,,0.00,VWS V14.00,2013-02-14 03:01:00,
2013-02-13 21:06:00,41.7,29.3,29.81,WNW,286,0.0,3.0,61,0.00,,,0.00,VWS V14.00,2013-02-14 03:06:00,
2013-02-13 21:12:00,41.5,29.1,29.81,West,279,2.0,8.0,61,0.00,,,0.00,VWS V14.00,2013-02-14 03:12:00,
2013-02-13 21:17:00,41.3,28.9,29.81,West,263,0.0,10.0,61,0.00,,,0.00,VWS V14.00,2013-02-14 03:17:00,
2013-02-13 21:22:00,41.1,29.1,29.81,West,281,3.0,10.0,62,0.00,,,0.00,VWS V14.00,2013-02-14 03:22:00,
2013-02-13 21:27:00,40.9,30.8,29.81,WNW,292,7.0,10.0,67,0.00,,,0.00,VWS V14.00,2013-02-14 03:27:00,
2013-02-13 21:32:00,40.9,29.7,29.81,West,275,9.0,10.0,64,0.00,,,0.00,VWS V14.00,2013-02-14 03:32:00,
2013-02-13 21:37:00,40.6,29.0,29.81,West,280,0.0,7.0,63,0.00,,,0.00,VWS V14.00,2013-02-14 03:37:00,
2013-02-13 21:42:00,40.3,29.1,29.81,West,273,0.0,7.0,64,0.00,,,0.00,VWS V14.00,2013-02-14 03:42:00,
2013-02-13 21:47:00,40.0,28.8,29.81,West,279,4.0,7.0,64,0.00,,,0.00,VWS V14.00,2013-02-14 03:47:00,
2013-02-13 21:52:00,39.9,28.7,29.81,WNW,283,4.0,7.0,64,0.00,,,0.00,VWS V14.00,2013-02-14 03:52:00,
2013-02-13 21:57:00,39.9,29.1,29.81,West,278,5.0,9.0,65,0.00,,,0.00,VWS V14.00,2013-02-14 03:57:00,
2013-02-13 22:02:00,40.0,28.8,29.81,West,264,4.0,11.0,64,0.00,,,0.00,VWS V14.00,2013-02-14 04:02:00,
2013-02-13 22:07:00,40.2,29.0,29.82,NW,304,6.0,8.0,64,0.00,,,0.00,VWS V14.00,2013-02-14 04:07:00,
2013-02-13 22:13:00,40.6,31.6,29.82,WNW,284,6.0,8.0,70,0.00,,,0.00,VWS V14.00,2013-02-14 04:13:00,
2013-02-13 22:18:00,41.1,29.9,29.82,WNW,284,5.0,10.0,64,0.00,,,0.00,VWS V14.00,2013-02-14 04:18:00,
2013-02-13 22:23:00,41.1,29.5,29.82,WNW,298,4.0,10.0,63,0.00,,,0.00,VWS V14.00,2013-02-14 04:23:00,
2013-02-13 22:28:00,41.1,29.5,29.83,West,281,5.0,10.0,63,0.00,,,0.00,VWS V14.00,2013-02-14 04:28:00,
2013-02-13 22:33:00,40.9,29.3,29.83,West,259,0.0,10.0,63,0.00,,,0.00,VWS V14.00,2013-02-14 04:33:00,
2013-02-13 22:38:00,40.8,29.2,29.83,WNW,296,9.0,9.0,63,0.00,,,0.00,VWS V14.00,2013-02-14 04:38:00,
2013-02-13 22:43:00,40.7,29.1,29.83,WNW,301,7.0,12.0,63,0.00,,,0.00,VWS V14.00,2013-02-14 04:43:00,
2013-02-13 22:48:00,41.0,31.6,29.83,West,271,5.0,12.0,69,0.00,,,0.00,VWS V14.00,2013-02-14 04:48:00,
2013-02-13 22:53:00,41.0,29.8,29.83,West,274,5.0,12.0,64,0.00,,,0.00,VWS V14.00,2013-02-14 04:53:00,
2013-02-13 22:58:00,40.7,29.5,29.83,West,263,9.0,12.0,64,0.00,,,0.00,VWS V14.00,2013-02-14 04:58:00,
2013-02-13 23:00:00,40.6,29.4,29.83,NW,307,5.0,12.0,64,0.00,,,0.00,VWS V14.00,2013-02-14 05:00:00,
2013-02-13 23:02:00,40.5,29.3,29.83,WNW,299,3.0,12.0,64,0.00,,,0.00,VWS V14.00,2013-02-14 05:02:00,
2013-02-13 23:07:00,40.1,28.9,29.84,WNW,291,3.0,10.0,64,0.00,,,0.00,VWS V14.00,2013-02-14 05:07:00,
2013-02-13 23:12:00,39.9,29.1,29.84,WNW,284,4.0,13.0,65,0.00,,,0.00,VWS V14.00,2013-02-14 05:12:00,
2013-02-13 23:17:00,39.7,29.3,29.84,West,264,3.0,13.0,66,0.00,,,0.00,VWS V14.00,2013-02-14 05:17:00,
2013-02-13 23:22:00,40.0,31.7,29.84,WNW,296,5.0,13.0,72,0.00,,,0.00,VWS V14.00,2013-02-14 05:22:00,
2013-02-13 23:27:00,40.1,30.0,29.84,NW,309,2.0,13.0,67,0.00,,,0.00,VWS V14.00,2013-02-14 05:27:00,
2013-02-13 23:32:00,39.9,29.9,29.84,NW,308,6.0,13.0,67,0.00,,,0.00,VWS V14.00,2013-02-14 05:32:00,
2013-02-13 23:37:00,39.8,29.8,29.84,NW,307,7.0,8.0,67,0.00,,,0.00,VWS V14.00,2013-02-14 05:37:00,
2013-02-13 23:42:00,39.8,29.8,29.85,West,279,5.0,11.0,67,0.00,,,0.00,VWS V14.00,2013-02-14 05:42:00,
2013-02-13 23:47:00,39.9,30.2,29.85,West,280,3.0,11.0,68,0.00,,,0.00,VWS V14.00,2013-02-14 05:47:00,
2013-02-13 23:52:00,40.0,29.9,29.85,NW,304,4.0,13.0,67,0.00,,,0.00,VWS V14.00,2013-02-14 05:52:00,
2013-02-13 23:57:00,40.3,31.0,29.85,WNW,294,0.0,13.0,69,0.00,,,0.00,VWS V14.00,2013-02-14 05:57:00,